+ View the NASA Portal
+ Center for Near-Earth Object Studies
IMPORTANT:
The SSD Announcement email list is now available. Major changes are coming in the near future, including possible hostname and/or URL changes. To be notified of such changes, subscribe to this email list.
Please visit
this page
for more details.
Don't show this message again
JPL Small-Body Database Browser
Search:
[
help
]
413597 (2005 UO117)
Classification:
Main-belt Asteroid
SPK-ID:
2413597
[
Ephemeris
|
Orbit Diagram
|
Orbital Elements
|
Mission Design
|
Physical Parameters
|
Discovery Circumstances
|
Close-Approach Data
]
[ show orbit diagram ]
Orbital Elements at Epoch 2458600.5 (2019-Apr-27.0) TDB
Reference:
JPL 15
(heliocentric ecliptic J2000)
Element
Value
Uncertainty (1-sigma)
Units
e
.1253214927451974
6.9392e-08
a
2.685412678537499
3.0665e-08
au
q
2.3488727530263
1.8998e-07
au
i
7.821625995696994
8.6245e-06
deg
node
25.34841245948266
3.5018e-05
deg
peri
134.5103561868439
4.9502e-05
deg
M
274.3323676379221
3.0488e-05
deg
t
p
2458982.998065354827
(2020-May-13.49806535)
0.00013627
TDB
period
1607.366746704818
4.40
2.7532e-05
7.538e-08
d
yr
n
.223968799116952
3.8362e-09
deg/d
Q
3.021952604048697
3.4508e-08
au
Orbit Determination Parameters
# obs. used (total)
211
data-arc span
6035 days (16.52 yr)
first obs. used
2003-04-26
last obs. used
2019-11-03
planetary ephem.
DE431
SB-pert. ephem.
SB431-N16
condition code
0
norm. resid. RMS
.62587
source
ORB
producer
Otto Matic
solution date
2019-Dec-05 01:20:15
Additional Information
Earth MOID
= 1.36471 au
Jupiter MOID
= 1.96798 au
T_jup
= 3.350
[ show covariance matrix ]
[
Ephemeris
|
Orbit Diagram
|
Orbital Elements
|
Mission Design
|
Physical Parameters
|
Discovery Circumstances
|
Close-Approach Data
]
Physical Parameter Table
Parameter
Symbol
Value
Units
Sigma
Reference
Notes
absolute magnitude
H
16.6
n/a
MPO368780
413597 (2005 UO117)
Discovered 2005-Oct-12 by Spacewatch at Kitt Peak
Reference:
Last Updated:
2014-11-10
[ show close-approach data ]
[
Ephemeris
|
Orbit Diagram
|
Orbital Elements
|
Mission Design
|
Physical Parameters
|
Discovery Circumstances
|
Close-Approach Data
]
2019-Dec-12 06:20 UT
(server date/time)
Site Manager:
Ryan S. Park
Webmaster
:
Alan B. Chamberlin